Girona Airport

Jump to: basic info | weather | frequencies | runways | comments

Related pages: nearby airports | nearby navaids | notams | map

Basic information (top)

Codes: GRO LEGE
Location: lon 41.901001, lat 2.760550, elev 468 ft / 143 m msl
Status: medium_airport
Scheduled airline service: yes
Links: Wikipedia Mobile

Weather (top)

Current conditions (rec'd 2015/02/27 16:30Z):

LEGE 271630Z 04013KT 9999 FEW050 11/M03 Q1015

Airport forecast (rec'd 2015/02/27 12:27Z):

TAF LEGE 271100Z 2712/2812 03015KT 9999 SCT030 TX14/2713Z TN01/2806Z 
      TEMPO 2718/2812 02005KT

Frequencies (top)

Verify before use: may be inaccurate or out of date.

APP: 120.9 MHz (APP)
GND: 121.7 MHz (GND)
TWR: 118.5 MHz (TWR)

Runways (top)

02/20: 7,874 x 148 ft (2,400 x 45 m) — paved — lighted

Latest comments (top)

No comments yet for Girona Airport

More... (top)

See also NOTAMs and nearby airports and navaids, or visit the Girona Airport page at the main OurAirports website..